Flag for Cyprus Weather past 2 weeks in Larnaca, Cyprus

Now
63 °F

Passing clouds.


Feels Like: 63 °F
Forecast: 42 / 65 °F
Wind: 3 mph from East

Location: Larnaca Airport

Current Time: Jan 27, 2015 at 2:49:31 PM

Latest Report: Jan 27, 2015 at 2:00 PM


Visibility: N/A

Pressure: 30.01 "Hg

Humidity: 59%

Dew point: 48 °F

Location of LarnacaLocation

Historic Weather in Larnaca — Graph

°F

Larnaca temperature yesterday

Maximum temperature yesterday: 68 °F (at 12:00 PM)
Minimum temperature yesterday: 45 °F (at 4:30 AM)
Average temperature yesterday: 55 °F

Past Weeks' High & Low Weather Summary

 TemperatureHumidityPressure
High68 °F (Jan 23, 12:00 PM)100% (Jan 15, 3:00 AM)30.33 "Hg (Jan 15, 3:00 AM)
Low43 °F (Jan 16, 3:30 AM)35% (Jan 26, 10:30 AM)29.95 "Hg (Jan 24, 1:30 PM)
Average55 °F76%30.13 "Hg
* Reported Jan 12 2:00 PM — Jan 27 2:00 PM, Larnaca, Weather by CustomWeather, © 2014

Note: Actual official high and low records may vary slightly from our data, if they occured in-between our weather recording intervals... More about our weather records

Advertising

Larnaca weather history for previous 24 hours

 ConditionsComfort  
Time TempWeatherWind HumidityBarometerVisibility
2:00 PM
Jan 27
63 °FPassing clouds.3 mph59%30.01 "HgN/A
1:30 PM63 °FPassing clouds.2 mph56%30.01 "HgN/A
1:00 PM63 °FPassing clouds.3 mph59%30.01 "HgN/A
12:30 PM63 °FPassing clouds.3 mph59%30.04 "HgN/A
12:00 PM63 °FPassing clouds.3 mph59%30.04 "HgN/A
11:30 AM63 °FPassing clouds.3 mph59%30.07 "HgN/A
11:00 AM63 °FPassing clouds.2 mph59%30.07 "HgN/A
10:30 AM61 °FPassing clouds.2 mph68%30.07 "HgN/A
10:00 AM59 °FPassing clouds.3 mph72%30.09 "HgN/A
9:30 AM57 °FPassing clouds.3 mph77%30.09 "HgN/A
9:00 AM55 °FPassing clouds.3 mph77%30.09 "HgN/A
8:30 AM52 °FPassing clouds.5 mph82%30.09 "HgN/A
8:00 AM50 °FSunny.7 mph82%30.09 "Hg10 mi
7:30 AM48 °FPassing clouds.6 mph82%30.09 "HgN/A
7:00 AM48 °FPassing clouds.6 mph82%30.09 "HgN/A
6:00 AM48 °FPassing clouds.7 mph82%30.09 "HgN/A
5:30 AM48 °FPassing clouds.6 mph82%30.09 "HgN/A
5:00 AM46 °FClear.7 mph82%30.09 "Hg10 mi
4:30 AM48 °FClear.7 mph71%30.09 "Hg10 mi
4:00 AM48 °FClear.7 mph71%30.09 "Hg10 mi
3:30 AM48 °FClear.7 mph66%30.09 "Hg10 mi
3:00 AM48 °FClear.7 mph66%30.09 "Hg10 mi
2:30 AM50 °FClear.8 mph62%30.09 "Hg10 mi
2:00 AM48 °FClear.6 mph66%30.09 "Hg10 mi
1:30 AM48 °FClear.7 mph66%30.09 "Hg10 mi
1:00 AM50 °FClear.7 mph67%30.09 "Hg10 mi
12:30 AM50 °FClear.7 mph71%30.09 "Hg10 mi
12:00 AM50 °FClear.6 mph71%30.09 "Hg10 mi
11:30 PM
Jan 26
50 °FClear.7 mph76%30.12 "Hg10 mi
11:00 PM52 °FClear.7 mph72%30.09 "Hg10 mi
10:30 PM52 °FClear.6 mph72%30.09 "Hg10 mi
10:00 PM52 °FClear.6 mph72%30.12 "Hg10 mi
9:30 PM52 °FPassing clouds.7 mph72%30.12 "HgN/A
9:00 PM52 °FClear.8 mph77%30.12 "Hg10 mi
8:30 PM54 °FClear.7 mph72%30.12 "Hg10 mi
8:00 PM54 °FClear.7 mph77%30.12 "Hg10 mi
7:30 PM54 °FPassing clouds.7 mph77%30.12 "HgN/A
7:00 PM55 °FPassing clouds.6 mph72%30.12 "HgN/A
6:30 PM55 °FPassing clouds.5 mph72%30.12 "HgN/A
6:00 PM57 °FPassing clouds.7 mph67%30.12 "HgN/A
5:30 PM59 °FPassing clouds.8 mph63%30.12 "HgN/A
5:00 PM61 °FPassing clouds.6 mph55%30.09 "HgN/A
4:30 PM63 °FPassing clouds.8 mph52%30.09 "HgN/A
4:00 PM63 °FPassing clouds.9 mph52%30.09 "HgN/A
3:30 PM64 °FScattered clouds.8 mph52%30.09 "HgN/A
3:00 PM64 °FScattered clouds.8 mph52%30.09 "HgN/A
2:30 PM64 °FScattered clouds.7 mph52%30.09 "HgN/A
2:00 PM66 °FScattered clouds.5 mph52%30.09 "HgN/A
Weather by CustomWeather, © 2014

See weather overviewHow to use our weather pages